INTELSAT 32E (IS-32E)

Last updated on Tue Sep 16 2025 00:02:49 GMT+0000 (Coordinated Universal Time)

1 41945U 17007B 25258.50466894 -.00000285 00000+0 00000+0 0 9996 2 41945 0.0129 113.6433 0000347 228.7931 150.7864 1.00270401 31475
UTC large
Height (km)
Speed (km/s)
/
Latitude / Longitude
Inclination (degrees)
Orbital Period (minutes)
Azimuth
Elevation
Range (km)
Doppler Factor

Next 0 passes for location: London (51.5072 / 0.1276)

Sorry there are no passes over London.